Time,TemperatureF,DewpointF,PressureIn,WindDirection,WindDirectionDegrees,WindSpeedMPH,WindSpeedGustMPH,Humidity,HourlyPrecipIn,Conditions,Clouds,dailyrainin,SoftwareType,DateUTC
2013-09-04 00:12:00,67.0,58.0,30.02,North,360,0.0,1.0,74,0.00,,,0.00,,2013-09-04 05:12:00,
2013-09-04 00:23:00,67.0,58.0,30.02,North,360,0.0,1.0,74,0.00,,,0.00,,2013-09-04 05:23:00,
2013-09-04 00:53:00,67.0,58.0,30.03,North,360,0.0,0.0,74,0.00,,,0.00,,2013-09-04 05:53:00,
2013-09-04 01:12:00,67.0,59.0,30.03,North,360,0.0,0.0,76,0.00,,,0.00,,2013-09-04 06:12:00,
2013-09-04 01:22:00,67.0,59.0,30.03,North,360,0.0,0.0,76,0.00,,,0.00,,2013-09-04 06:22:00,
2013-09-04 01:52:00,67.0,60.0,30.03,North,360,0.0,1.0,77,0.00,,,0.00,,2013-09-04 06:52:00,
2013-09-04 02:11:00,67.0,60.0,30.04,ENE,72,1.0,1.0,77,0.00,,,0.00,,2013-09-04 07:11:00,
2013-09-04 02:22:00,67.0,60.0,30.04,ENE,72,1.0,1.0,77,0.00,,,0.00,,2013-09-04 07:22:00,
2013-09-04 02:52:00,66.0,59.0,30.04,ENE,72,1.0,1.0,77,0.00,,,0.00,,2013-09-04 07:52:00,
2013-09-04 03:12:00,66.0,59.0,30.04,ENE,73,1.0,2.0,77,0.00,,,0.00,,2013-09-04 08:12:00,
2013-09-04 03:22:00,66.0,59.0,30.04,ENE,73,1.0,2.0,77,0.00,,,0.00,,2013-09-04 08:22:00,
2013-09-04 03:52:00,66.0,59.0,30.04,North,360,0.0,0.0,78,0.00,,,0.00,,2013-09-04 08:52:00,
2013-09-04 04:11:00,65.0,58.0,30.05,North,360,0.0,0.0,78,0.00,,,0.00,,2013-09-04 09:11:00,
2013-09-04 04:22:00,65.0,58.0,30.05,North,360,0.0,0.0,78,0.00,,,0.00,,2013-09-04 09:22:00,
2013-09-04 04:53:00,65.0,58.0,30.05,North,360,0.0,0.0,79,0.00,,,0.00,,2013-09-04 09:53:00,
2013-09-04 05:12:00,64.0,58.0,30.05,North,360,0.0,0.0,80,0.00,,,0.00,,2013-09-04 10:12:00,
2013-09-04 05:23:00,64.0,58.0,30.05,North,360,0.0,0.0,80,0.00,,,0.00,,2013-09-04 10:23:00,
2013-09-04 05:52:00,64.0,58.0,30.06,ENE,73,0.0,2.0,80,0.00,,,0.00,,2013-09-04 10:52:00,
2013-09-04 06:12:00,63.0,57.0,30.06,North,360,0.0,0.0,80,0.00,,,0.00,,2013-09-04 11:12:00,
2013-09-04 06:22:00,63.0,57.0,30.06,North,360,0.0,0.0,80,0.00,,,0.00,,2013-09-04 11:22:00,
2013-09-04 06:52:00,63.0,57.0,30.07,North,360,0.0,0.0,81,0.00,,,0.00,,2013-09-04 11:52:00,
2013-09-04 07:11:00,63.0,57.0,30.08,North,360,0.0,0.0,82,0.00,,,0.00,,2013-09-04 12:11:00,
2013-09-04 07:21:00,63.0,57.0,30.08,North,360,0.0,0.0,82,0.00,,,0.00,,2013-09-04 12:21:00,
2013-09-04 07:52:00,63.0,57.0,30.09,ENE,73,0.0,0.0,82,0.00,,,0.00,,2013-09-04 12:52:00,
2013-09-04 08:22:00,64.0,58.0,30.09,North,360,0.0,0.0,82,0.00,,,0.00,,2013-09-04 13:22:00,
2013-09-04 08:52:00,65.0,59.0,30.11,North,10,0.0,0.0,82,0.00,,,0.00,,2013-09-04 13:52:00,
2013-09-04 09:21:00,66.0,60.0,30.11,NW,314,1.0,1.0,81,0.00,,,0.00,,2013-09-04 14:21:00,
2013-09-04 09:52:00,71.0,62.0,30.12,NW,313,1.0,1.0,72,0.00,,,0.00,,2013-09-04 14:52:00,
2013-09-04 10:12:00,73.0,61.0,30.11,NW,313,0.0,0.0,67,0.00,,,0.00,,2013-09-04 15:12:00,
2013-09-04 10:22:00,73.0,61.0,30.11,NW,313,0.0,0.0,67,0.00,,,0.00,,2013-09-04 15:22:00,
2013-09-04 10:53:00,75.0,62.0,30.13,North,360,0.0,0.0,64,0.00,,,0.00,,2013-09-04 15:53:00,
2013-09-04 11:12:00,78.0,62.0,30.14,NW,313,0.0,1.0,58,0.00,,,0.00,,2013-09-04 16:12:00,
2013-09-04 11:23:00,78.0,62.0,30.14,NW,313,0.0,1.0,58,0.00,,,0.00,,2013-09-04 16:23:00,
2013-09-04 11:53:00,81.0,63.0,30.14,NW,313,1.0,2.0,54,0.00,,,0.00,,2013-09-04 16:53:00,
2013-09-04 12:13:00,82.0,62.0,30.13,NW,314,1.0,2.0,51,0.00,,,0.00,,2013-09-04 17:13:00,
2013-09-04 12:23:00,82.0,62.0,30.13,NW,314,1.0,2.0,51,0.00,,,0.00,,2013-09-04 17:23:00,
2013-09-04 12:53:00,83.0,61.0,30.13,NW,313,2.0,4.0,47,0.00,,,0.00,,2013-09-04 17:53:00,
2013-09-04 13:13:00,83.0,62.0,30.12,NW,305,2.0,2.0,49,0.00,,,0.00,,2013-09-04 18:13:00,
2013-09-04 13:22:00,83.0,62.0,30.12,NW,305,2.0,2.0,49,0.00,,,0.00,,2013-09-04 18:22:00,
2013-09-04 13:52:00,83.0,64.0,30.11,NW,305,2.0,2.0,53,0.00,,,0.00,,2013-09-04 18:52:00,
2013-09-04 14:11:00,85.0,61.0,30.11,ESE,121,1.0,1.0,45,0.00,,,0.00,,2013-09-04 19:11:00,
2013-09-04 14:22:00,85.0,61.0,30.11,ESE,121,1.0,1.0,45,0.00,,,0.00,,2013-09-04 19:22:00,
2013-09-04 14:52:00,84.0,60.0,30.10,ESE,121,0.0,1.0,45,0.00,,,0.00,,2013-09-04 19:52:00,
2013-09-04 15:11:00,85.0,61.0,30.09,SE,124,1.0,2.0,44,0.00,,,0.00,,2013-09-04 20:11:00,
2013-09-04 15:22:00,85.0,61.0,30.09,SE,124,1.0,2.0,44,0.00,,,0.00,,2013-09-04 20:22:00,
2013-09-04 15:53:00,85.0,64.0,30.08,SE,124,2.0,2.0,50,0.00,,,0.00,,2013-09-04 20:53:00,
2013-09-04 16:11:00,85.0,60.0,30.08,SE,141,1.0,2.0,43,0.00,,,0.00,,2013-09-04 21:11:00,
2013-09-04 16:22:00,85.0,60.0,30.08,SE,141,1.0,2.0,43,0.00,,,0.00,,2013-09-04 21:22:00,
2013-09-04 16:54:00,84.0,64.0,30.07,SE,144,1.0,1.0,51,0.00,,,0.00,,2013-09-04 21:54:00,
2013-09-04 17:23:00,83.0,65.0,30.06,North,360,0.0,0.0,54,0.00,,,0.00,,2013-09-04 22:23:00,
2013-09-04 17:55:00,82.0,64.0,30.07,North,360,0.0,0.0,55,0.00,,,0.00,,2013-09-04 22:55:00,
2013-09-04 18:13:00,81.0,63.0,30.06,SE,142,2.0,2.0,54,0.00,,,0.00,,2013-09-04 23:13:00,
2013-09-04 18:22:00,81.0,63.0,30.06,SE,142,2.0,2.0,54,0.00,,,0.00,,2013-09-04 23:22:00,
2013-09-04 18:42:00,79.0,62.0,30.06,North,360,0.0,0.0,57,0.00,,,0.00,,2013-09-04 23:42:00,
2013-09-04 18:52:00,79.0,62.0,30.06,North,360,0.0,0.0,57,0.00,,,0.00,,2013-09-04 23:52:00,
2013-09-04 19:22:00,78.0,63.0,30.06,SE,142,1.0,1.0,60,0.00,,,0.00,,2013-09-05 00:22:00,
2013-09-04 19:52:00,78.0,64.0,30.06,SE,142,2.0,3.0,62,0.00,,,0.00,,2013-09-05 00:52:00,
2013-09-04 20:11:00,76.0,62.0,30.06,SE,142,1.0,1.0,63,0.00,,,0.00,,2013-09-05 01:11:00,
2013-09-04 20:22:00,76.0,62.0,30.06,SE,142,1.0,1.0,63,0.00,,,0.00,,2013-09-05 01:22:00,
2013-09-04 20:52:00,75.0,62.0,30.07,North,360,0.0,0.0,64,0.00,,,0.00,,2013-09-05 01:52:00,
2013-09-04 21:11:00,74.0,61.0,30.09,SE,143,0.0,1.0,65,0.00,,,0.00,,2013-09-05 02:11:00,
2013-09-04 21:22:00,74.0,61.0,30.09,SE,143,0.0,1.0,65,0.00,,,0.00,,2013-09-05 02:22:00,
2013-09-04 22:11:00,72.0,61.0,30.10,North,360,0.0,0.0,69,0.00,,,0.00,,2013-09-05 03:11:00,
2013-09-04 22:22:00,72.0,61.0,30.10,North,360,0.0,0.0,69,0.00,,,0.00,,2013-09-05 03:22:00,
2013-09-04 22:54:00,71.0,61.0,30.10,North,360,0.0,0.0,71,0.00,,,0.00,,2013-09-05 03:54:00,
2013-09-04 23:13:00,71.0,62.0,30.09,North,360,0.0,0.0,72,0.00,,,0.00,,2013-09-05 04:13:00,
2013-09-04 23:24:00,71.0,62.0,30.09,North,360,0.0,0.0,72,0.00,,,0.00,,2013-09-05 04:24:00,
2013-09-04 23:53:00,70.0,61.0,30.11,SE,143,1.0,1.0,72,0.00,,,0.00,,2013-09-05 04:53:00,